LBT722 DTTA-LFML

Flight info

Callsign LBT722
Flight time N/A
Altitude 36000
Route TOBIB3C TOBIB A725 TANIT UA725 OSMAR DCT LUNAM DCT ALG DCT GINOX DCT OKSER T175 TINOT TINOT1L
Aircraft A320/M-SDE3FGHIRWY/LB1

Departure

Time 2026-04-28 19:08
Airport Tunis Carthage International Airport (DTTA)

Arrival

Time N/A
Airport Marseille Provence Airport (LFML)
Time Latitude Longitude Altitude Speed Heading
2026-04-28 18:45 36.84150 10.21809 63 ft 0 kts 282°
2026-04-28 18:56 36.84149 10.21817 63 ft 2 kts 282°
2026-04-28 18:56 36.84145 10.21838 30 ft 2 kts 282°
2026-04-28 18:57 36.84140 10.21859 30 ft 3 kts 310°
2026-04-28 18:57 36.84126 10.21873 30 ft 2 kts 329°
2026-04-28 18:57 36.84111 10.21883 30 ft 3 kts 347°
2026-04-28 18:57 36.84094 10.21884 30 ft 2 kts
2026-04-28 18:58 36.84082 10.21882 30 ft 0 kts 16°
2026-04-28 19:01 36.84083 10.21883 30 ft 2 kts 16°
2026-04-28 19:01 36.84166 10.21910 30 ft 20 kts 13°
2026-04-28 19:02 36.84271 10.21940 30 ft 11 kts 11°
2026-04-28 19:02 36.84342 10.21957 30 ft 10 kts 11°
2026-04-28 19:02 36.84404 10.21975 30 ft 9 kts 17°
2026-04-28 19:02 36.84450 10.22010 30 ft 7 kts 44°
2026-04-28 19:03 36.84482 10.22058 30 ft 8 kts 52°
2026-04-28 19:03 36.84503 10.22132 30 ft 10 kts 91°
2026-04-28 19:03 36.84493 10.22225 30 ft 12 kts 82°
2026-04-28 19:03 36.84567 10.22280 30 ft 14 kts 11°
2026-04-28 19:04 36.84668 10.22304 30 ft 16 kts 12°
2026-04-28 19:04 36.84781 10.22335 30 ft 18 kts 13°
2026-04-28 19:04 36.84910 10.22371 31 ft 20 kts 14°
2026-04-28 19:04 36.85023 10.22314 31 ft 20 kts 292°
2026-04-28 19:05 36.85078 10.22150 31 ft 21 kts 291°
2026-04-28 19:05 36.85132 10.21988 30 ft 20 kts 292°
2026-04-28 19:05 36.85184 10.21833 30 ft 19 kts 293°
2026-04-28 19:05 36.85260 10.21708 30 ft 18 kts 345°
2026-04-28 19:06 36.85373 10.21762 31 ft 18 kts 38°
2026-04-28 19:06 36.85396 10.21857 32 ft 18 kts 104°
2026-04-28 19:06 36.85379 10.21909 31 ft 0 kts 115°
2026-04-28 19:06 36.85378 10.21910 31 ft 1 kts 115°
2026-04-28 19:07 36.85373 10.21925 32 ft 3 kts 115°
2026-04-28 19:07 36.85371 10.21930 32 ft 0 kts 115°
2026-04-28 19:07 36.85363 10.21951 32 ft 22 kts 115°
2026-04-28 19:07 36.85198 10.22448 33 ft 95 kts 111°
2026-04-28 19:08 36.84872 10.23436 55 ft 146 kts 112°
2026-04-28 19:08 36.84482 10.24566 710 ft 138 kts 113°
2026-04-28 19:08 36.84108 10.25691 1279 ft 144 kts 115°
2026-04-28 19:08 36.83699 10.26923 1710 ft 164 kts 115°
2026-04-28 19:09 36.83237 10.28315 1982 ft 183 kts 115°
2026-04-28 19:09 36.82583 10.29757 2267 ft 198 kts 138°
2026-04-28 19:09 36.81302 10.30474 2696 ft 213 kts 178°
2026-04-28 19:09 36.79886 10.29960 3483 ft 219 kts 216°
2026-04-28 19:10 36.79039 10.28392 4311 ft 226 kts 257°
2026-04-28 19:10 36.79217 10.26454 5125 ft 232 kts 296°
2026-04-28 19:10 36.80343 10.25023 5755 ft 237 kts 328°
2026-04-28 19:10 36.81847 10.24169 6416 ft 239 kts 338°
2026-04-28 19:11 36.83421 10.23516 7257 ft 239 kts 341°
2026-04-28 19:11 36.85016 10.22902 8124 ft 240 kts 343°
2026-04-28 19:11 36.86701 10.22430 8657 ft 260 kts 346°
2026-04-28 19:11 36.88540 10.21934 8859 ft 280 kts 346°
2026-04-28 19:12 36.90485 10.21391 9535 ft 290 kts 345°
2026-04-28 19:12 36.92464 10.20820 9880 ft 292 kts 345°
2026-04-28 19:12 36.94445 10.20230 9994 ft 295 kts 345°
2026-04-28 19:12 36.96506 10.19598 10339 ft 317 kts 344°
2026-04-28 19:13 36.98726 10.18905 10714 ft 337 kts 344°
2026-04-28 19:13 37.01028 10.18186 11420 ft 344 kts 343°
2026-04-28 19:13 37.03367 10.17457 12234 ft 348 kts 343°
2026-04-28 19:13 37.05727 10.16721 13052 ft 351 kts 343°
2026-04-28 19:14 37.08106 10.15976 13850 ft 354 kts 343°
2026-04-28 19:14 37.10510 10.15225 14554 ft 358 kts 343°
2026-04-28 19:14 37.12971 10.14458 15250 ft 362 kts 343°
2026-04-28 19:14 37.15423 10.13690 15941 ft 365 kts 342°
2026-04-28 19:15 37.17895 10.12914 16636 ft 368 kts 342°
2026-04-28 19:15 37.20391 10.12131 17304 ft 372 kts 342°
2026-04-28 19:15 37.22912 10.11344 17973 ft 376 kts 342°
2026-04-28 19:15 37.24598 10.10818 18378 ft 378 kts 342°
2026-04-28 19:16 37.28032 10.09746 19147 ft 382 kts 342°
2026-04-28 19:16 37.30620 10.08939 19736 ft 384 kts 342°
2026-04-28 19:16 37.33222 10.08125 20315 ft 387 kts 342°
2026-04-28 19:16 37.35844 10.07302 20893 ft 389 kts 343°
2026-04-28 19:17 37.38476 10.06474 21466 ft 392 kts 343°
2026-04-28 19:17 37.41130 10.05638 22021 ft 394 kts 343°
2026-04-28 19:17 37.43795 10.04796 22575 ft 396 kts 343°
2026-04-28 19:17 37.46479 10.03947 23125 ft 399 kts 343°
2026-04-28 19:18 37.49181 10.03088 23642 ft 401 kts 343°
2026-04-28 19:18 37.51896 10.02225 24067 ft 404 kts 343°
2026-04-28 19:18 37.54632 10.01355 24511 ft 407 kts 343°
2026-04-28 19:18 37.57380 10.00481 24938 ft 409 kts 343°
2026-04-28 19:19 37.60150 9.99602 25354 ft 411 kts 343°
2026-04-28 19:19 37.62932 9.98717 25754 ft 414 kts 343°
2026-04-28 19:19 37.65727 9.97831 26165 ft 416 kts 343°
2026-04-28 19:19 37.68546 9.96938 26566 ft 418 kts 343°
2026-04-28 19:20 37.71413 9.96027 26974 ft 421 kts 343°
2026-04-28 19:20 37.72336 9.95733 27106 ft 421 kts 343°
2026-04-28 19:20 37.74859 9.94927 27466 ft 423 kts 342°
2026-04-28 19:20 37.77711 9.93997 27853 ft 425 kts 342°
2026-04-28 19:21 37.80587 9.93056 28224 ft 428 kts 342°
2026-04-28 19:21 37.82539 9.92417 28477 ft 430 kts 342°
2026-04-28 19:21 37.85439 9.91475 28913 ft 428 kts 342°
2026-04-28 19:21 37.88299 9.90565 29453 ft 426 kts 343°
2026-04-28 19:22 37.91197 9.89650 29599 ft 432 kts 343°
2026-04-28 19:22 37.93139 9.89038 29705 ft 436 kts 343°
2026-04-28 19:22 37.97099 9.87789 30060 ft 441 kts 343°
2026-04-28 19:22 38.00087 9.86843 30330 ft 443 kts 343°
2026-04-28 19:23 38.03081 9.85892 30613 ft 445 kts 343°
2026-04-28 19:23 38.06092 9.84929 30896 ft 447 kts 343°
2026-04-28 19:23 38.09100 9.83965 31278 ft 446 kts 343°
2026-04-28 19:23 38.12103 9.83003 31684 ft 444 kts 343°
2026-04-28 19:24 38.15098 9.82047 32089 ft 443 kts 343°
2026-04-28 19:24 38.17904 9.81150 32461 ft 442 kts 343°
2026-04-28 19:24 38.19094 9.80769 32612 ft 441 kts 343°
2026-04-28 19:24 38.19612 9.80601 32650 ft 439 kts 343°
2026-04-28 19:25 38.22366 9.79842 33734 ft 400 kts 347°
2026-04-28 19:25 38.24780 9.79249 34349 ft 394 kts 340°
2026-04-28 19:25 38.27172 9.77798 34807 ft 383 kts 327°
2026-04-28 19:26 38.31126 9.74698 35107 ft 388 kts 327°
2026-04-28 19:26 38.33534 9.73090 35232 ft 394 kts 331°
2026-04-28 19:26 38.36042 9.71611 35363 ft 400 kts 332°
2026-04-28 19:27 38.38505 9.70198 35479 ft 405 kts 332°
2026-04-28 19:27 38.40749 9.68873 35593 ft 409 kts 331°
2026-04-28 19:27 38.43327 9.67358 35640 ft 409 kts 334°
2026-04-28 19:28 38.45915 9.65824 35754 ft 412 kts 330°
2026-04-28 19:28 38.48278 9.64260 35898 ft 415 kts 328°
2026-04-28 19:28 38.52508 9.61293 36020 ft 424 kts 328°
2026-04-28 19:29 38.56622 9.58418 36022 ft 431 kts 329°
2026-04-28 19:29 38.60881 9.55545 36025 ft 433 kts 329°
2026-04-28 19:30 38.65675 9.51995 36023 ft 433 kts 328°
2026-04-28 19:30 38.67640 9.50672 36021 ft 433 kts 336°
2026-04-28 19:31 38.69217 9.49681 35918 ft 432 kts 331°
2026-04-28 19:31 38.70703 9.48924 35912 ft 431 kts 343°
2026-04-28 19:31 38.73541 9.48696 35810 ft 441 kts 353°
2026-04-28 19:31 38.76484 9.47900 35929 ft 432 kts 333°
2026-04-28 19:32 38.79078 9.45914 36031 ft 430 kts 320°
2026-04-28 19:32 38.81393 9.43559 36032 ft 431 kts 319°
2026-04-28 19:32 38.85909 9.38953 36028 ft 433 kts 322°
2026-04-28 19:33 38.87364 9.37904 35874 ft 436 kts 341°
2026-04-28 19:33 38.89463 9.37129 35528 ft 431 kts 336°
2026-04-28 19:33 38.91796 9.36327 35818 ft 427 kts 340°
2026-04-28 19:33 38.94445 9.34899 35976 ft 425 kts 328°
2026-04-28 19:34 38.98188 9.31856 36034 ft 428 kts 327°
2026-04-28 19:34 39.02539 9.28238 36026 ft 434 kts 324°
2026-04-28 19:35 39.06916 9.24674 36017 ft 437 kts 327°
2026-04-28 19:35 39.12256 9.20912 36016 ft 438 kts 330°
2026-04-28 19:36 39.16981 9.17836 36008 ft 439 kts 331°
2026-04-28 19:36 39.21889 9.14620 36001 ft 439 kts 330°
2026-04-28 19:37 39.26233 9.11694 36009 ft 439 kts 330°
2026-04-28 19:37 39.32326 9.07526 36005 ft 439 kts 329°
2026-04-28 19:38 39.37733 9.03824 35998 ft 440 kts 330°
2026-04-28 19:38 39.43150 9.00124 35998 ft 440 kts 330°
2026-04-28 19:39 39.48561 8.96430 36004 ft 440 kts 330°
2026-04-28 19:39 39.53979 8.92727 36011 ft 440 kts 330°
2026-04-28 19:40 39.59392 8.89012 36010 ft 440 kts 330°
2026-04-28 19:40 39.64802 8.85293 36015 ft 440 kts 330°
2026-04-28 19:41 39.67235 8.83612 36017 ft 440 kts 328°
2026-04-28 19:41 39.71437 8.80751 36026 ft 440 kts 330°
2026-04-28 19:42 39.76827 8.77028 36021 ft 441 kts 330°
2026-04-28 19:42 39.81386 8.73855 36022 ft 441 kts 330°
2026-04-28 19:43 39.87683 8.69476 36017 ft 442 kts 330°
2026-04-28 19:43 39.93105 8.65710 36013 ft 442 kts 330°
2026-04-28 19:44 39.98566 8.61922 36011 ft 442 kts 330°
2026-04-28 19:44 40.03989 8.58150 36012 ft 442 kts 330°
2026-04-28 19:45 40.09417 8.54362 36010 ft 442 kts 330°
2026-04-28 19:45 40.14843 8.50571 36011 ft 443 kts 330°
2026-04-28 19:46 40.20229 8.46819 36006 ft 422 kts 330°
2026-04-28 19:46 40.22772 8.45056 36009 ft 406 kts 330°
2026-04-28 19:46 40.25213 8.43346 36010 ft 391 kts 329°
2026-04-28 19:47 40.29947 8.40038 36009 ft 383 kts 330°
2026-04-28 19:47 40.34621 8.36771 35939 ft 379 kts 330°
2026-04-28 19:48 40.39239 8.33520 35901 ft 375 kts 329°
2026-04-28 19:48 40.43824 8.30286 35748 ft 374 kts 329°
2026-04-28 19:49 40.48423 8.27029 35626 ft 371 kts 329°
2026-04-28 19:49 40.52918 8.23850 35595 ft 364 kts 330°
2026-04-28 19:50 40.57327 8.20753 34813 ft 366 kts 330°
2026-04-28 19:50 40.59601 8.19128 34831 ft 376 kts 329°
2026-04-28 19:50 40.61913 8.17444 34958 ft 383 kts 329°
2026-04-28 19:51 40.63464 8.16310 35036 ft 388 kts 329°
2026-04-28 19:51 40.66658 8.13990 35205 ft 396 kts 329°
2026-04-28 19:51 40.69091 8.12239 35332 ft 402 kts 329°
2026-04-28 19:51 40.71566 8.10467 35456 ft 407 kts 330°
2026-04-28 19:52 40.74075 8.08682 35585 ft 413 kts 330°
2026-04-28 19:52 40.79229 8.05020 34737 ft 434 kts 330°
2026-04-28 19:52 40.81911 8.03105 34249 ft 443 kts 330°
2026-04-28 19:53 40.83686 8.01827 34112 ft 445 kts 328°
2026-04-28 19:53 40.86264 7.99534 33967 ft 446 kts 319°
2026-04-28 19:53 40.88537 7.96776 34015 ft 446 kts 311°
2026-04-28 19:54 40.92809 7.90786 34013 ft 448 kts 312°
2026-04-28 19:54 40.97120 7.84745 34013 ft 449 kts 312°
2026-04-28 19:55 41.01403 7.78731 34013 ft 449 kts 311°